Location: Kailua
(21.4020°N, 157.7390°W)
Time: 06:42:32
(UTC-10:00)

X-37B - Visible Passes

Search period start: 25 January 2021 00:00
Search period end: 04 February 2021 00:00
Orbit: 383 x 391 km, 45.1° (Epoch: 22 January)

Date Brightness Start Highest point End Pass type
(mag) Time Alt. Az. Time Alt. Az. Time Alt. Az.
01 Feb 1.4 19:31:39 10° NNW 19:34:12 35° NNE 19:34:12 35° NNE visible
02 Feb 2.9 20:10:01 10° WNW 20:12:05 25° WSW 20:12:05 25° WSW visible
03 Feb 0.7 19:11:20 10° NW 19:14:29 77° SW 19:17:39 10° SE visible
